Location: Unspecified
(51.0950°N, 12.9690°E)
Time: 16:46:40
(UTC+00:00)

Cosmos 1140 Rocket - Pass Details

Date: 28 October 2021
Orbit: 743 x 768 km, 74.1° (Epoch: 03 December)

Event Time Altitude Azimuth Distance (km) Brightness Sun altitude
Rises 17:10:11 0° 336° (NNW) 3,222 7.0 -13.2°
Reaches altitude 10° 17:12:35 10° 340° (NNW) 2,297 6.2 -13.6°
Maximum altitude 17:17:46 65° 62° (ENE) 838 3.4 -14.4°
Drops below altitude 10° 17:22:57 10° 145° (SE) 2,296 5.7 -15.2°
Enters shadow 17:24:59 - 148° (SSE) 3,081 6.3 -15.5°
